TimeAST,TemperatureF,Dew PointF,Humidity,Sea Level PressureIn,VisibilityMPH,Wind Direction,Wind SpeedMPH,Gust SpeedMPH,PrecipitationIn,Events,Conditions,WindDirDegrees,DateUTC
12:56 AM,78.1,73.9,87,29.98,10.0,Calm,Calm,-,N/A,,Partly Cloudy,0,2013-07-07 04:56:00
1:56 AM,78.1,73.9,87,29.95,10.0,SE,4.6,-,0.01,,Scattered Clouds,130,2013-07-07 05:56:00
2:56 AM,78.1,73.0,84,29.95,10.0,Calm,Calm,-,N/A,,Scattered Clouds,0,2013-07-07 06:56:00
3:56 AM,78.1,73.9,87,29.94,10.0,Calm,Calm,-,N/A,,Scattered Clouds,0,2013-07-07 07:56:00
4:56 AM,78.1,73.9,87,29.94,10.0,Calm,Calm,-,N/A,,Partly Cloudy,0,2013-07-07 08:56:00
5:56 AM,77.0,73.0,88,29.95,10.0,Calm,Calm,-,N/A,,Partly Cloudy,0,2013-07-07 09:56:00
6:56 AM,79.0,73.9,84,29.97,10.0,Calm,Calm,-,N/A,,Partly Cloudy,0,2013-07-07 10:56:00
7:56 AM,81.0,75.0,82,29.99,10.0,East,8.1,-,N/A,,Scattered Clouds,90,2013-07-07 11:56:00
8:56 AM,82.9,75.0,77,30.00,10.0,East,6.9,-,N/A,,Scattered Clouds,100,2013-07-07 12:56:00
9:56 AM,86.0,75.0,70,30.01,10.0,East,12.7,-,0.00,,Scattered Clouds,80,2013-07-07 13:56:00
10:56 AM,88.0,75.0,65,30.00,10.0,East,17.3,21.9,N/A,,Scattered Clouds,80,2013-07-07 14:56:00
11:56 AM,84.9,75.0,72,30.00,10.0,ENE,17.3,-,0.00,Rain,Light Rain,70,2013-07-07 15:56:00
12:56 PM,82.9,77.0,82,29.99,10.0,East,13.8,-,0.11,,Mostly Cloudy,80,2013-07-07 16:56:00
1:26 PM,82.4,77.0,84,29.99,3.0,East,12.7,-,0.01,Rain-Thunderstorm,Thunderstorms and Rain,80,2013-07-07 17:26:00
1:56 PM,82.0,78.1,88,29.97,10.0,ENE,8.1,-,0.09,Rain,Light Rain,60,2013-07-07 17:56:00
2:56 PM,82.0,77.0,85,29.97,9.0,ENE,16.1,25.3,0.02,Rain,Light Rain,70,2013-07-07 18:56:00
3:56 PM,81.0,75.0,82,29.97,9.0,ENE,11.5,-,0.00,Rain,Light Rain,70,2013-07-07 19:56:00
4:56 PM,81.0,75.9,85,29.96,10.0,ENE,11.5,-,0.00,,Mostly Cloudy,70,2013-07-07 20:56:00
5:56 PM,81.0,75.0,82,29.96,10.0,East,13.8,-,N/A,,Scattered Clouds,90,2013-07-07 21:56:00
6:56 PM,81.0,75.9,85,29.97,10.0,East,13.8,-,N/A,,Scattered Clouds,80,2013-07-07 22:56:00
7:56 PM,80.1,75.0,85,29.99,9.0,East,10.4,-,0.00,Rain,Light Rain,90,2013-07-07 23:56:00
8:56 PM,80.1,77.0,90,30.01,6.0,East,11.5,-,0.09,,Mostly Cloudy,80,2013-07-08 00:56:00
9:56 PM,79.0,75.0,88,30.02,9.0,East,10.4,19.6,0.00,Rain,Light Rain,90,2013-07-08 01:56:00
10:56 PM,79.0,75.9,90,30.04,10.0,East,6.9,-,0.01,,Overcast,90,2013-07-08 02:56:00
11:56 PM,79.0,75.0,88,30.03,10.0,ESE,4.6,-,N/A,,Scattered Clouds,110,2013-07-08 03:56:00